Change the Weather History Date:

Monday, March 17, 2014

  Actual Average Record
Temperature  
Mean Temperature 28 °F 42 °F  
Max Temperature 34 °F 51 °F 86 °F (1945)
Min Temperature 21 °F 32 °F 11 °F (1916)
Degree Days  
Heating Degree Days 37 23  
Month to date heating degree days 518 437  
Since 1 July heating degree days 4604 4251  
Cooling Degree Days 0 0  
Month to date cooling degree days 0 0  
Year to date cooling degree days 0 0  
Moisture  
Dew Point 9 °F    
Average Humidity 54    
Maximum Humidity 77    
Minimum Humidity 31    
Precipitation  
Precipitation T in 0.15 in 0.82 in (1911)
Month to date precipitation 0.22 2.19  
Year to date precipitation 7.88 7.66  
Sea Level Pressure  
Sea Level Pressure 30.05 in    
Wind  
Wind Speed 9 mph (NE)    
Max Wind Speed 17 mph    
Max Gust Speed 24 mph    
Visibility 8 miles    
Events Snow    
T = Trace of Precipitation, MM = Missing Value Source: NWS Daily Summary

Daily Weather History Graph

Daily Weather History Graph

Search for Another Location

Airport or City:

Trip Planner

Search our weather history database for the weather conditions in past years. The results will help you decide how hot, cold, wet, or windy it might be!

Date:

Astronomy

Mar. 17, 2014 Rise Set
Actual Time 7:07 AM EDT 7:08 PM EDT
Civil Twilight 6:40 AM EDT 7:35 PM EDT
Nautical Twilight 6:08 AM EDT 8:06 PM EDT
Astronomical Twilight 5:36 AM EDT 8:39 PM EDT
Moon 8:22 PM EDT (3/17) 7:21 AM EDT (3/17)
Length of Visible Light 12h 54m
Length of Day
12h 00m
Full, 99% of the Moon is Illuminated
Mar 17
Full
Mar 23
Last Quarter
Mar 30
New
Apr 7
First Quarter
Apr 15
Full

Hourly Weather History & Observations

Time (EDT) Temp. Windchill Dew Point Humidity Pressure Visibility Wind Dir Wind Speed Gust Speed Precip Events Conditions
12:53 AM 30.0 °F 21.7 °F 3.0 °F 32% 30.09 in 10.0 mi NNE 9.2 mph - N/A   Overcast
1:53 AM 28.9 °F 19.8 °F 3.9 °F 35% 30.06 in 10.0 mi NE 10.4 mph - N/A   Overcast
2:53 AM 28.9 °F 19.8 °F 5.0 °F 36% 30.04 in 10.0 mi NE 10.4 mph - N/A   Overcast
3:53 AM 28.9 °F 19.2 °F 7.0 °F 40% 30.02 in 10.0 mi ENE 11.5 mph - N/A   Overcast
4:53 AM 26.1 °F 14.5 °F 10.0 °F 51% 30.04 in 5.0 mi ENE 13.8 mph 20.7 mph 0.00 in Snow Light Snow
5:01 AM 26.1 °F 15.6 °F 10.0 °F 51% 30.06 in 5.0 mi NNE 11.5 mph - 0.00 in Snow Light Snow
5:41 AM 23.0 °F 9.6 °F 14.0 °F 68% 30.05 in 2.0 mi NE 16.1 mph 23.0 mph 0.00 in Snow Light Snow
5:49 AM 21.2 °F 9.5 °F 15.8 °F 80% 30.05 in 1.5 mi NE 11.5 mph - 0.00 in Snow Light Snow
5:53 AM 21.9 °F 8.7 °F 16.0 °F 78% 30.04 in 1.2 mi NE 15.0 mph 20.7 mph 0.00 in Snow Light Snow
6:48 AM 21.2 °F 10.9 °F 15.8 °F 80% 30.06 in 3.0 mi East 9.2 mph - 0.00 in Snow Light Snow
6:49 AM 21.0 °F 9.3 °F 16.0 °F 81% 30.05 in 4.0 mi East 11.5 mph - 0.00 in Snow Light Snow
7:01 AM 21.9 °F 13.4 °F 16.0 °F 78% 30.05 in 9.0 mi East 6.9 mph - 0.00 in   Overcast
7:53 AM 23.0 °F 14.7 °F 12.0 °F 63% 30.05 in 10.0 mi NNE 6.9 mph - 0.00 in   Overcast
8:53 AM 24.1 °F 11.5 °F 3.0 °F 40% 30.06 in 10.0 mi NE 15.0 mph - N/A   Overcast
9:53 AM 24.1 °F 12.0 °F 5.0 °F 44% 30.04 in 10.0 mi NE 13.8 mph - N/A   Overcast
10:53 AM 25.0 °F 13.6 °F 8.1 °F 49% 30.06 in 10.0 mi NE 12.7 mph - N/A   Overcast
11:53 AM 26.1 °F 16.2 °F 8.1 °F 47% 30.05 in 10.0 mi NE 10.4 mph - N/A   Overcast
12:53 PM 28.0 °F 19.3 °F 10.0 °F 47% 30.05 in 10.0 mi NE 9.2 mph - N/A   Overcast
1:53 PM 28.9 °F 25.2 °F 8.1 °F 41% 30.04 in 10.0 mi Variable 3.5 mph - N/A   Overcast
2:53 PM 30.9 °F 25.2 °F 9.0 °F 40% 30.01 in 10.0 mi NE 5.8 mph 16.1 mph N/A   Overcast
3:53 PM 32.0 °F 24.2 °F 8.1 °F 37% 30.03 in 10.0 mi North 9.2 mph - N/A   Overcast
4:53 PM 32.0 °F 26.4 °F 7.0 °F 35% 30.04 in 10.0 mi ENE 5.8 mph - N/A   Overcast
5:53 PM 32.0 °F 24.8 °F 8.1 °F 37% 30.04 in 10.0 mi ENE 8.1 mph - N/A   Overcast
6:53 PM 32.0 °F 26.4 °F 6.1 °F 34% 30.05 in 10.0 mi ENE 5.8 mph - N/A   Overcast
7:53 PM 30.9 °F 25.2 °F 8.1 °F 38% 30.06 in 10.0 mi ENE 5.8 mph - N/A   Overcast
8:53 PM 30.9 °F 26.2 °F 8.1 °F 38% 30.08 in 10.0 mi East 4.6 mph - N/A   Overcast
9:53 PM 30.9 °F 25.2 °F 8.1 °F 38% 30.11 in 10.0 mi ENE 5.8 mph - N/A   Overcast
10:53 PM 30.9 °F 26.2 °F 9.0 °F 40% 30.11 in 10.0 mi ENE 4.6 mph - N/A   Overcast
11:53 PM 30.0 °F 24.1 °F 10.0 °F 43% 30.10 in 10.0 mi East 5.8 mph - N/A   Overcast